Overview Statistics Trail Chart Weather Telemetry Raw packets
 

This is the latest recevied weather packets stored in our database for station/object N0KWA. If no packets are shown the sender has not sent any weather packets the latest 10 day(s).

<< 36 37 38 39 40 41 42 >>
Time Temp. Humidity Pressure Rain* Wind** Luminosity Snow
1788195427 31.11° C 79% 1019.4 hPa 0 mm - 34 W/m² -
1788195123 31.11° C 81% 1019.4 hPa 0 mm - 49 W/m² -
1788194818 31.11° C 80% 1019.5 hPa 0 mm - 37 W/m² -
1788194515 31.11° C 80% 1019.3 hPa 0 mm - 37 W/m² -
1788194209 30.56° C 81% 1019.5 hPa 0 mm - 89 W/m² -
1788193905 30.56° C 83% 1019.9 hPa 0 mm - 32 W/m² -
1788193604 30.56° C 80% 1019.7 hPa 0 mm - 41 W/m² -
1788193302 30.56° C 82% 1019.9 hPa 0 mm - 52 W/m² -
1788192998 30.56° C 83% 1019.7 hPa 0 mm - 48 W/m² -
1788192695 30° C 85% 1019.9 hPa 0 mm - 61 W/m² -
1788192393 30° C 87% 1019.9 hPa 0 mm - 40 W/m² -
1788192089 30° C 86% 1019.8 hPa 0 mm - 37 W/m² -
1788191788 29.44° C 87% 1019.9 hPa 0 mm - 37 W/m² -
1788191484 29.44° C 88% 1019.8 hPa 0 mm - 41 W/m² -
1788191180 29.44° C 88% 1019.8 hPa 0 mm - 32 W/m² -
1788190875 29.44° C 90% 1019.8 hPa 0 mm - 23 W/m² -
1788190574 29.44° C 89% 1019.8 hPa 0 mm - 16 W/m² -
1788190271 28.89° C 89% 1019.8 hPa 0 mm - 30 W/m² -
1788189966 28.89° C 89% 1019.9 hPa 0 mm - 26 W/m² -
1788189661 29.44° C 89% 1019.5 hPa 0 mm - 20 W/m² -
1788189360 29.44° C 88% 1019.6 hPa 0 mm - 32 W/m² -
1788189055 29.44° C 90% 1019.6 hPa 0 mm - 29 W/m² -
1788188750 28.89° C 90% 1019.5 hPa 0 mm - 22 W/m² -
1788188446 28.89° C 90% 1019.6 hPa 0 mm - 24 W/m² -
1788188140 28.89° C 91% 1019.7 hPa 0 mm - 43 W/m² -

* Rain latest hour (hover to see other rain measurements)
** Current wind speed in m/s (hover to see current wind gust speed)